| time (UTC) | temp F | wind direction | speed MPH | gust MPH | rain 1hr in | rain 24hr in | rain mn in | humidity % | barometer mb |
| 20260506191503 | 55 | 79 | 1.0 | 14.0 | 0.00 | 0.00 | 0.00 | 26 | 1016.7 |
| 20260506184558 | 53 | 319 | 0.0 | 6.0 | 0.00 | 0.00 | 0.00 | 25 | 1017.3 |
| 20260506183057 | 52 | 314 | 0.0 | 10.0 | 0.00 | 0.00 | 0.00 | 27 | 1017.6 |
| 20260506181612 | 52 | 266 | 0.0 | 6.0 | 0.00 | 0.00 | 0.00 | 28 | 1018.0 |
| 20260506180044 | 52 | 94 | 0.0 | 7.0 | 0.00 | 0.00 | 0.00 | 29 | 1018.3 |
| 20260506174542 | 50 | 257 | 0.0 | 6.0 | 0.00 | 0.00 | 0.00 | 32 | 1018.7 |
| 20260506173053 | 50 | 118 | 0.0 | 9.0 | 0.00 | 0.00 | 0.00 | 30 | 1019.0 |
| 20260506171507 | 49 | 263 | 0.0 | 3.0 | 0.00 | 0.00 | 0.00 | 32 | 1019.2 |
| 20260506170004 | 49 | 27 | 2.0 | 7.0 | 0.00 | 0.00 | 0.00 | 31 | 1019.6 |
| 20260506164613 | 48 | 86 | 0.0 | 6.0 | 0.00 | 0.00 | 0.00 | 33 | 1019.8 |
| 20260506163025 | 48 | 1.0 | 10.0 | 0.00 | 0.00 | 0.00 | 33 | 1020.1 | |
| 20260506161522 | 47 | 256 | 0.0 | 3.0 | 0.00 | 0.00 | 0.00 | 36 | 1020.3 |
| 20260506160054 | 46 | 172 | 0.0 | 2.0 | 0.00 | 0.00 | 0.00 | 39 | 1020.5 |
| 20260506154544 | 45 | 6 | 0.0 | 7.0 | 0.00 | 0.00 | 0.00 | 40 | 1020.6 |
| 20260506153019 | 43 | 75 | 0.0 | 7.0 | 0.00 | 0.00 | 0.00 | 46 | 1020.7 |
| 20260506151508 | 40 | 229 | 0.0 | 4.0 | 0.00 | 0.00 | 0.00 | 51 | 1021.0 |
| 20260506150034 | 39 | 248 | 0.0 | 5.0 | 0.00 | 0.00 | 0.00 | 52 | 1021.2 |
| 20260506144528 | 37 | 244 | 0.0 | 2.0 | 0.00 | 0.00 | 0.00 | 55 | 1021.3 |
| 20260506143028 | 35 | 53 | 0.0 | 7.0 | 0.00 | 0.00 | 0.00 | 59 | 1021.5 |
| 20260506141523 | 34 | 319 | 0.0 | 5.0 | 0.00 | 0.00 | 0.00 | 61 | 1021.6 |
| 20260506140025 | 32 | 252 | 0.0 | 0.0 | 0.00 | 0.00 | 0.00 | 67 | 1021.7 |
| 20260506134522 | 30 | 240 | 0.0 | 0.0 | 0.00 | 0.00 | 0.00 | 71 | 1021.8 |
| 20260506133019 | 28 | 71 | 0.0 | 0.0 | 0.00 | 0.00 | 0.00 | 73 | 1021.9 |
| 20260506131529 | 28 | 146 | 0.0 | 0.0 | 0.00 | 0.00 | 0.00 | 72 | 1021.9 |
| 20260506130019 | 26 | 84 | 0.0 | 0.0 | 0.00 | 0.00 | 0.00 | 74 | 1021.9 |
| 20260506124518 | 23 | 190 | 0.0 | 0.0 | 0.00 | 0.00 | 0.00 | 80 | 1021.9 |
| 20260506123048 | 23 | 110 | 0.0 | 0.0 | 0.00 | 0.00 | 0.00 | 79 | 1021.8 |
| 20260506121547 | 22 | 264 | 0.0 | 0.0 | 0.00 | 0.00 | 0.00 | 81 | 1021.9 |
| 20260506120045 | 21 | 313 | 0.0 | 0.0 | 0.00 | 0.00 | 0.00 | 81 | 1021.8 |
| 20260506114545 | 22 | 41 | 0.0 | 0.0 | 0.00 | 0.00 | 0.00 | 82 | 1021.8 |
| 20260506113044 | 21 | 273 | 0.0 | 0.0 | 0.00 | 0.00 | 0.00 | 83 | 1021.8 |
| 20260506111542 | 21 | 229 | 0.0 | 0.0 | 0.00 | 0.00 | 0.00 | 83 | 1021.9 |
| 20260506110012 | 21 | 96 | 0.0 | 0.0 | 0.00 | 0.00 | 0.00 | 83 | 1021.9 |
| 20260506104508 | 22 | 154 | 0.0 | 0.0 | 0.00 | 0.00 | 0.00 | 81 | 1022.0 |
| 20260506103009 | 22 | 116 | 0.0 | 0.0 | 0.00 | 0.00 | 0.00 | 81 | 1021.9 |
| 20260506101505 | 22 | 316 | 0.0 | 0.0 | 0.00 | 0.00 | 0.00 | 80 | 1022.0 |
| 20260506100003 | 23 | 37 | 0.0 | 0.0 | 0.00 | 0.00 | 0.00 | 78 | 1022.0 |
| 20260506094504 | 24 | 124 | 0.0 | 0.0 | 0.00 | 0.00 | 0.00 | 76 | 1022.0 |
| 20260506093100 | 25 | 262 | 0.0 | 0.0 | 0.00 | 0.00 | 0.00 | 74 | 1022.1 |
| 20260506091601 | 27 | 46 | 0.0 | 0.0 | 0.00 | 0.00 | 0.00 | 74 | 1022.0 |
| 20260506084605 | 23 | 165 | 0.0 | 0.0 | 0.00 | 0.00 | 0.00 | 82 | 1022.0 |
| 20260506083052 | 24 | 99 | 0.0 | 0.0 | 0.00 | 0.00 | 0.00 | 80 | 1022.0 |
| 20260506081551 | 24 | 72 | 0.0 | 0.0 | 0.00 | 0.00 | 0.00 | 77 | 1022.1 |
| 20260506073040 | 27 | 278 | 0.0 | 0.0 | 0.00 | 0.00 | 0.00 | 74 | 1022.4 |
| 20260506071539 | 25 | 273 | 0.0 | 0.0 | 0.00 | 0.00 | 0.00 | 79 | 1022.5 |
| 20260506061559 | 27 | 291 | 0.0 | 0.0 | 0.00 | 0.00 | 0.00 | 72 | 1022.2 |
| 20260506044510 | 31 | 160 | 0.0 | 0.0 | 0.00 | 0.00 | 0.00 | 64 | 1021.9 |
| 20260506043002 | 33 | 39 | 0.0 | 0.0 | 0.00 | 0.00 | 0.00 | 57 | 1021.8 |
| 20260506041605 | 34 | 69 | 0.0 | 0.0 | 0.00 | 0.00 | 0.00 | 55 | 1021.7 |
| 20260506040056 | 35 | 123 | 0.0 | 0.0 | 0.00 | 0.00 | 0.00 | 55 | 1021.7 |
| 20260506034612 | 35 | 350 | 0.0 | 0.0 | 0.00 | 0.00 | 0.00 | 54 | 1021.6 |
| 20260506033052 | 36 | 259 | 0.0 | 0.0 | 0.00 | 0.00 | 0.00 | 53 | 1021.4 |
| 20260506031547 | 37 | 27 | 0.0 | 0.0 | 0.00 | 0.00 | 0.00 | 50 | 1021.2 |
| 20260506030047 | 38 | 83 | 0.0 | 0.0 | 0.00 | 0.00 | 0.00 | 47 | 1020.9 |
| 20260506024557 | 39 | 230 | 0.0 | 0.0 | 0.00 | 0.00 | 0.00 | 46 | 1020.7 |
| 20260506023041 | 40 | 159 | 0.0 | 0.0 | 0.00 | 0.00 | 0.00 | 45 | 1020.4 |
| 20260506021537 | 42 | 221 | 0.0 | 0.0 | 0.00 | 0.00 | 0.00 | 42 | 1020.2 |
| 20260506020035 | 43 | 217 | 0.0 | 0.0 | 0.00 | 0.00 | 0.00 | 41 | 1020.1 |
| 20260506014536 | 45 | 193 | 0.0 | 6.0 | 0.00 | 0.00 | 0.00 | 37 | 1019.9 |
| 20260506013041 | 45 | 262 | 0.0 | 8.0 | 0.00 | 0.00 | 0.00 | 36 | 1019.9 |
| 20260506011502 | 45 | 137 | 2.0 | 10.0 | 0.00 | 0.00 | 0.00 | 36 | 1019.9 |
| 20260506010006 | 46 | 346 | 0.0 | 13.0 | 0.00 | 0.00 | 0.00 | 35 | 1019.7 |
| 20260506004559 | 46 | 143 | 3.0 | 9.0 | 0.00 | 0.00 | 0.00 | 36 | 1019.7 |
| 20260506003059 | 46 | 339 | 2.0 | 12.0 | 0.00 | 0.00 | 0.00 | 35 | 1019.7 |
| 20260506001558 | 46 | 101 | 3.0 | 11.0 | 0.00 | 0.00 | 0.00 | 36 | 1019.6 |
| 20260506000101 | 46 | 313 | 6.0 | 16.0 | 0.00 | 0.00 | 0.00 | 35 | 1019.6 |
| 20260505234557 | 47 | 250 | 3.0 | 15.0 | 0.00 | 0.00 | 0.00 | 36 | 1019.5 |
| 20260505233055 | 47 | 308 | 5.0 | 16.0 | 0.00 | 0.00 | 0.00 | 35 | 1019.4 |
| 20260505231555 | 46 | 165 | 5.0 | 14.0 | 0.00 | 0.00 | 0.00 | 35 | 1019.3 |
| 20260505230104 | 47 | 120 | 4.0 | 18.0 | 0.00 | 0.00 | 0.00 | 34 | 1019.4 |
| 20260505224552 | 48 | 192 | 6.0 | 17.0 | 0.00 | 0.00 | 0.00 | 35 | 1019.3 |
| 20260505223056 | 47 | 206 | 8.0 | 20.0 | 0.00 | 0.00 | 0.00 | 36 | 1019.2 |
| 20260505221547 | 46 | 156 | 5.0 | 18.0 | 0.00 | 0.00 | 0.00 | 36 | 1019.2 |
| 20260505220047 | 46 | 345 | 6.0 | 15.0 | 0.00 | 0.00 | 0.00 | 37 | 1019.2 |
| 20260505214519 | 46 | 254 | 8.0 | 20.0 | 0.00 | 0.00 | 0.00 | 37 | 1019.2 |
| 20260505213016 | 46 | 38 | 8.0 | 19.0 | 0.00 | 0.00 | 0.00 | 39 | 1019.3 |
| 20260505211512 | 46 | 124 | 9.0 | 23.0 | 0.00 | 0.00 | 0.00 | 37 | 1019.3 |
| 20260505210011 | 45 | 118 | 7.0 | 17.0 | 0.00 | 0.00 | 0.00 | 38 | 1019.4 |
| 20260505204510 | 45 | 121 | 12.0 | 21.0 | 0.00 | 0.00 | 0.00 | 39 | 1019.4 |
| 20260505203009 | 46 | 297 | 1.0 | 17.0 | 0.00 | 0.00 | 0.00 | 38 | 1019.5 |
| 20260505201507 | 45 | 326 | 0.0 | 16.0 | 0.00 | 0.00 | 0.00 | 41 | 1019.5 |
| 20260505200006 | 44 | 104 | 2.0 | 16.0 | 0.00 | 0.00 | 0.00 | 43 | 1019.6 |
| 20260505194502 | 44 | 49 | 3.0 | 18.0 | 0.00 | 0.00 | 0.00 | 44 | 1019.7 |
| 20260505193003 | 43 | 124 | 0.0 | 13.0 | 0.00 | 0.00 | 0.00 | 43 | 1019.8 |
| 20260505191601 | 44 | 177 | 5.0 | 18.0 | 0.00 | 0.00 | 0.00 | 40 | 1019.9 |